Temp
64 63 59 63 62 60 59 57 56 61 66 61 63 63 68 72 72 74 76 77 78 80 82 82 81 82 81 82 83 83 81 79 79 76 73 74 72 75 75 76 74 74 70 71
62 57 63 62 61 59 58 55 56 61 63 63 63 62 68 70 71 74 74 76 76 74 76 77 78 79 78 77 78 81 83 82 79 79 76 77 76 77 78 77 74 73 71 70
56 61 63 61 59 57 57 55 56 55 60 64 61 60 64 70 73 73 77 72 72 71 71 73 74 74 76 76 75 76 80 82 80 78 78 76 78 77 75 75 74 73 73 71
58 62 60 59 56 59 52 61 58 56 54 49 61 46 60 66 67 71 66 67 67 69 71 72 73 72 72 73 73 72 73 78 81 78 77 74 74 74 77 76 76 74 74 72
56 57 57 55 57 59 56 60 58 58 55 52 55 49 58 65 62 59 62 64 65 67 69 69 71 72 73 70 70 69 71 72 75 78 76 74 74 76 77 76 73 74 73 74
55 61 60 57 60 59 60 58 57 56 52 43 51 50 53 53 53 57 61 63 63 65 67 69 70 71 70 70 68 69 70 72 72 77 76 75 73 74 72 73 72 71 73 72
51 53 57 58 54 58 57 53 43 42 42 41 52 48 53 53 56 57 57 60 61 63 63 65 65 67 66 65 66 67 69 69 71 74 75 75 74 74 75 74 73 72 71 69
40 43 50 56 52 49 50 50 42 33 36 41 52 43 50 55 58 59 60 61 61 61 61 63 64 65 65 63 64 62 66 67 70 72 72 73 74 75 75 75 72 65 60 57
38 40 52 53 55 54 49 46 52 43 45 38 46 49 52 55 55 55 56 59 58 59 60 61 63 64 64 63 62 60 61 63 63 64 64 63 64 63 62 61 58 55 55 53
44 36 46 50 55 56 52 54 43 45 32 31 42 44 47 46 49 52 53 55 57 59 60 60 61 62 64 64 62 59 59 59 59 58 58 56 56 56 55 54 52 54 53 52
44 40 42 47 46 45 47 44 45 44 41 34 33 41 49 47 49 49 52 55 57 58 58 59 60 62 63 63 63 58 57 57 57 57 57 55 53 53 52 51 52 52 52 50
44 39 34 40 49 49 46 43 44 36 34 36 32 37 53 53 54 52 53 55 57 58 58 60 60 60 61 61 63 57 56 55 55 56 55 55 55 53 52 51 50 50 50 50
44 38 32 38 43 46 41 43 44 42 40 33 28 36 54 55 54 55 54 55 56 56 57 58 58 58 59 60 62 58 57 56 55 55 54 52 50 49 49 48 47 47 49 49
45 39 36 31 37 41 36 40 42 39 31 33 34 37 45 49 51 54 54 55 55 56 55 56 56 57 57 58 60 57 56 56 55 52 50 49 48 47 46 46 46 47 48 46
42 34 37 38 38 37 36 36 37 35 37 31 36 38 44 48 51 52 53 54 54 54 53 54 54 55 56 56 59 56 54 54 54 51 49 47 46 46 46 46 46 46 45 44
41 32 35 31 36 36 33 36 36 37 37 38 38 38 49 52 54 51 51 52 52 52 52 53 54 54 54 55 57 56 52 51 51 48 46 47 46 45 45 45 45 44 44 43
35 33 30 24 34 33 26 35 38 39 41 39 34 42 49 48 49 50 51 52 51 52 52 52 52 52 53 56 57 54 51 49 47 46 45 44 44 43 43 43 42 41 40 42
34 32 31 24 29 16 36 43 43 39 42 44 44 46 49 49 51 53 54 52 52 52 52 52 52 51 53 54 53 52 50 48 46 45 44 43 42 41 42 41 40 40 41 39
37 33 26 22 24 31 34 40 40 37 38 45 45 47 49 50 48 49 54 55 53 53 53 52 53 52 52 50 49 47 46 45 43 42 41 41 40 38 38 37 37 38 39 38
36 36 29 25 19 17 35 44 48 45 31 48 49 46 45 46 40 46 53 54 54 54 54 52 52 51 50 49 47 43 41 40 38 38 38 38 36 36 35 34 36 37 36 35
32 32 25 26 21 29 42 45 48 27 33 47 47 45 45 42 46 50 52 52 55 54 52 51 50 46 46 46 43 39 37 35 36 36 37 37 36 35 34 34 34 34 36 36
29 26 25 28 23 19 46 44 35 43 48 46 46 46 45 47 48 49 50 51 52 52 50 47 45 42 43 43 40 36 33 35 35 34 34 33 32 32 32 31 32 34 34 32
27 33 31 31 33 45 46 44 49 49 46 47 47 48 48 47 47 49 48 50 51 50 47 45 43 39 38 39 38 33 33 34 33 32 31 31 31 31 31 30 30 29 31 29
37 40 32 33 37 40 43 46 48 48 46 48 49 49 48 45 47 48 48 49 48 47 45 44 38 34 33 34 33 32 32 32 32 30 30 31 30 29 29 30 30 28 29 27
36 37 34 34 38 41 43 45 45 45 47 47 48 48 47 47 47 48 48 46 44 42 38 37 34 32 31 32 32 32 32 31 30 30 30 29 29 28 28 29 28 28 28 27
37 35 29 28 34 33 34 37 38 37 41 45 46 46 48 47 46 48 42 42 41 37 35 33 32 31 30 30 30 30 31 31 30 29 29 27 28 28 29 28 26 28 28 27
MSLP
1014.02 1014.16 1014.19 1014.01 1014.05 1014.25 1014.19 1013.99 1013.55 1013.13 1012.50 1011.99 1010.85 1009.32 1009.84 1009.58 1008.79 1008.05 1007.52 1007.02 1006.54 1005.77 1005.91 1005.83 1005.52 1005.26 1005.11 1004.60 1004.36 1004.04 1004.17 1003.92 1005.03 1005.52 1005.77 1006.15 1006.11 1006.31 1006.93 1007.26 1007.63 1008.42 1009.16 1009.83
1014.51 1014.36 1014.22 1014.47 1014.52 1014.42 1014.26 1013.97 1013.51 1013.10 1012.77 1012.23 1011.18 1009.36 1009.47 1009.20 1008.72 1007.96 1007.61 1007.24 1007.26 1006.91 1006.24 1005.94 1005.76 1005.59 1005.27 1004.89 1004.38 1003.81 1003.16 1003.01 1003.27 1003.61 1003.83 1004.53 1004.72 1005.04 1005.40 1006.23 1006.61 1007.08 1007.98 1009.08
1014.89 1014.65 1014.51 1014.55 1014.57 1014.32 1014.30 1014.10 1013.64 1013.50 1013.15 1012.49 1011.38 1009.04 1009.27 1008.78 1008.11 1008.02 1007.92 1008.58 1008.39 1008.09 1007.51 1006.65 1006.08 1005.72 1005.28 1004.60 1004.17 1003.53 1002.70 1002.06 1001.99 1002.31 1003.28 1003.95 1004.39 1004.74 1004.72 1004.75 1005.31 1006.20 1007.23 1008.13
1015.17 1015.03 1014.92 1014.89 1014.82 1014.61 1014.25 1014.08 1013.91 1013.61 1013.29 1012.17 1012.29 1009.68 1009.25 1008.32 1008.33 1008.56 1009.49 1009.63 1009.35 1008.79 1008.11 1007.45 1006.55 1005.72 1005.27 1004.81 1004.35 1003.24 1002.45 1001.78 1001.23 1001.68 1001.98 1002.28 1002.38 1002.82 1002.72 1003.47 1004.43 1005.38 1006.28 1006.93
1015.84 1015.62 1015.48 1015.25 1014.94 1014.79 1014.59 1014.59 1014.18 1013.71 1013.34 1012.76 1012.44 1011.78 1008.85 1009.30 1009.25 1010.46 1010.71 1010.74 1010.33 1009.80 1009.11 1008.24 1007.45 1006.64 1005.75 1005.14 1004.43 1003.43 1002.13 1001.73 1001.35 1000.85 1001.02 1001.50 1001.72 1001.67 1002.65 1003.32 1003.84 1004.68 1005.58 1005.70
1016.88 1016.42 1016.22 1016.06 1015.64 1015.47 1015.18 1014.79 1014.25 1013.90 1013.66 1012.97 1012.58 1012.44 1010.77 1011.32 1012.22 1011.90 1011.82 1011.62 1011.28 1010.53 1009.66 1008.63 1007.97 1006.97 1006.02 1005.30 1004.38 1003.53 1002.38 1001.23 1000.91 1000.61 1000.79 1001.05 1001.36 1001.77 1002.66 1003.14 1003.65 1004.20 1004.53 1005.01
1018.23 1017.44 1017.35 1017.16 1016.53 1016.17 1015.86 1015.30 1014.80 1014.11 1013.99 1013.17 1013.12 1013.22 1012.43 1013.26 1013.46 1013.53 1013.17 1012.69 1012.16 1011.59 1010.65 1009.60 1008.90 1007.91 1007.04 1006.04 1005.12 1004.12 1002.98 1001.73 1000.68 1000.50 1000.86 1001.27 1001.72 1002.01 1002.56 1003.06 1003.14 1003.79 1003.98 1004.33
1020.15 1018.89 1018.70 1018.42 1018.12 1017.77 1017.03 1016.65 1016.43 1015.50 1014.75 1013.79 1013.99 1012.95 1012.95 1013.95 1014.34 1014.10 1013.63 1013.40 1012.80 1011.80 1011.40 1010.69 1009.90 1008.98 1008.10 1007.00 1006.00 1005.32 1003.87 1002.83 1001.87 1001.05 1001.65 1001.92 1002.14 1002.35 1002.68 1003.10 1003.57 1004.40 1005.43 1006.66
1021.77 1020.57 1019.85 1019.42 1018.90 1018.60 1017.92 1017.43 1017.35 1016.86 1016.13 1015.40 1013.75 1013.40 1013.89 1013.79 1013.89 1013.80 1013.81 1013.60 1013.09 1012.43 1011.94 1011.27 1010.31 1009.57 1008.66 1007.83 1007.18 1006.25 1005.28 1004.21 1003.22 1002.79 1002.55 1002.96 1003.06 1003.27 1003.62 1004.23 1005.06 1005.78 1006.65 1007.40
1022.98 1021.87 1020.82 1020.03 1019.37 1018.78 1018.65 1018.50 1017.86 1017.58 1016.82 1015.54 1013.87 1013.58 1012.72 1013.81 1014.06 1014.18 1013.90 1013.51 1013.15 1012.53 1012.14 1011.81 1011.07 1010.18 1009.22 1008.36 1007.70 1006.96 1006.26 1005.71 1005.14 1004.17 1004.09 1004.13 1004.77 1005.04 1005.54 1006.02 1006.50 1007.30 1007.99 1007.87
1023.60 1022.98 1021.79 1021.14 1020.14 1019.53 1019.32 1018.97 1018.92 1018.78 1017.90 1016.66 1015.31 1013.23 1013.77 1014.48 1014.78 1014.74 1014.48 1014.25 1013.76 1013.24 1012.84 1012.33 1011.50 1010.84 1009.95 1009.13 1008.13 1007.67 1007.19 1006.65 1006.32 1005.92 1005.57 1004.81 1005.59 1006.15 1006.95 1007.64 1008.11 1008.78 1009.14 1008.27
1024.40 1023.98 1022.82 1021.58 1020.50 1020.42 1020.12 1019.93 1019.94 1019.79 1019.01 1018.55 1017.74 1013.42 1014.04 1013.96 1014.34 1014.74 1014.53 1014.37 1014.06 1013.76 1013.23 1012.68 1012.08 1011.31 1010.34 1009.50 1008.48 1008.57 1008.09 1007.61 1007.55 1007.27 1006.84 1006.16 1007.50 1007.30 1007.22 1008.61 1009.81 1009.55 1010.07 1009.17
1025.06 1024.55 1023.62 1021.30 1021.17 1020.99 1021.00 1020.91 1021.04 1021.19 1020.74 1019.59 1018.69 1014.57 1014.55 1013.95 1013.45 1014.20 1014.12 1014.21 1014.01 1013.64 1013.24 1012.87 1012.15 1011.47 1010.71 1009.82 1008.93 1008.74 1008.81 1008.36 1007.57 1008.53 1007.65 1007.36 1008.73 1008.61 1008.89 1009.47 1010.79 1010.55 1010.58 1011.67
1025.53 1025.01 1024.59 1022.98 1021.91 1022.29 1021.74 1021.28 1021.87 1022.01 1021.10 1019.94 1017.47 1016.03 1015.68 1015.10 1014.36 1013.86 1014.02 1014.20 1014.22 1013.91 1013.60 1013.01 1012.27 1011.73 1011.11 1010.36 1009.46 1009.12 1009.16 1009.55 1009.45 1008.87 1008.33 1008.60 1008.65 1010.13 1009.14 1010.75 1011.59 1011.39 1012.17 1012.95
1025.76 1025.06 1024.56 1023.43 1023.38 1023.09 1021.87 1021.08 1021.98 1021.74 1020.76 1020.13 1016.50 1016.77 1014.67 1014.39 1014.37 1014.07 1014.31 1014.41 1014.32 1014.13 1013.97 1013.45 1012.84 1011.98 1011.14 1010.40 1009.73 1009.47 1009.45 1009.87 1010.03 1009.92 1009.74 1009.62 1009.66 1010.06 1011.12 1011.17 1012.61 1013.00 1013.46 1013.35
1026.29 1025.34 1024.80 1023.28 1024.09 1023.20 1021.39 1021.06 1021.04 1020.26 1019.41 1017.97 1016.96 1015.47 1014.36 1014.35 1014.08 1014.11 1014.39 1014.39 1014.27 1014.12 1013.92 1013.62 1013.01 1012.35 1011.36 1010.44 1009.57 1009.29 1009.75 1009.92 1010.19 1010.74 1011.01 1011.55 1011.45 1011.17 1012.49 1012.63 1013.25 1013.85 1013.78 1014.41
1026.71 1026.07 1025.81 1023.15 1024.16 1022.99 1020.93 1019.83 1019.24 1018.55 1017.74 1017.38 1016.46 1015.30 1014.79 1014.22 1014.08 1014.32 1014.40 1014.42 1014.27 1014.17 1014.03 1013.72 1013.21 1012.65 1011.89 1010.52 1009.38 1009.46 1009.98 1010.40 1010.62 1011.02 1010.99 1011.75 1012.37 1012.31 1013.47 1014.02 1014.29 1014.88 1015.22 1014.51
1026.25 1026.42 1026.41 1024.31 1024.12 1022.24 1019.76 1019.45 1018.83 1017.75 1016.88 1016.48 1015.82 1014.93 1014.65 1014.28 1014.20 1014.39 1014.22 1014.29 1014.18 1014.15 1013.94 1013.72 1013.42 1012.90 1012.29 1011.42 1010.74 1010.63 1010.92 1011.20 1011.51 1011.85 1012.35 1012.81 1013.15 1014.38 1014.46 1014.80 1015.06 1015.74 1016.29 1016.58
1026.05 1026.45 1026.09 1025.29 1023.51 1021.09 1019.84 1018.88 1017.70 1017.05 1016.32 1016.21 1015.45 1014.67 1014.43 1014.25 1014.52 1014.42 1014.39 1014.28 1014.19 1014.14 1014.00 1013.92 1013.70 1013.32 1012.85 1012.55 1012.24 1012.20 1012.38 1012.81 1012.99 1013.30 1014.03 1014.44 1014.84 1015.46 1015.77 1016.12 1016.85 1017.30 1017.03 1017.26
1025.23 1025.85 1025.77 1024.68 1023.42 1020.63 1019.02 1018.14 1017.53 1017.23 1015.70 1015.61 1015.02 1014.70 1014.66 1014.76 1014.41 1014.22 1014.28 1014.18 1014.00 1014.04 1013.98 1013.95 1013.77 1013.64 1013.46 1013.42 1013.25 1013.28 1013.87 1014.43 1014.88 1015.31 1015.73 1015.93 1016.53 1016.47 1017.15 1017.56 1017.91 1018.18 1018.51 1018.69
1024.81 1024.65 1024.41 1023.40 1022.44 1019.81 1018.00 1017.34 1017.17 1016.96 1015.20 1015.37 1015.26 1015.51 1015.53 1015.41 1015.14 1014.55 1014.31 1014.00 1013.82 1013.78 1013.81 1014.15 1014.26 1014.31 1014.21 1014.35 1014.29 1014.50 1014.81 1015.52 1016.40 1016.62 1016.89 1017.20 1017.47 1018.06 1018.74 1018.98 1019.33 1019.71 1019.77 1019.26
1024.20 1023.91 1023.06 1022.17 1021.11 1018.59 1017.02 1016.75 1016.70 1015.42 1015.06 1015.40 1015.50 1015.19 1015.39 1015.16 1014.71 1014.29 1014.02 1013.82 1013.74 1013.78 1013.95 1014.49 1014.74 1015.00 1015.07 1015.17 1015.48 1015.84 1015.94 1016.62 1016.97 1017.35 1017.88 1018.38 1018.66 1019.08 1019.59 1020.41 1020.70 1020.61 1020.62 1019.91
1023.54 1022.86 1022.10 1021.24 1018.62 1016.83 1016.63 1016.03 1015.59 1015.45 1015.25 1014.93 1014.85 1014.66 1014.74 1014.36 1014.15 1014.05 1013.77 1013.79 1013.79 1014.13 1014.40 1014.95 1015.36 1015.85 1016.25 1016.40 1016.59 1016.72 1017.40 1017.63 1017.83 1018.05 1018.64 1019.24 1019.68 1020.41 1021.27 1021.35 1021.47 1021.43 1021.39 1021.28
1022.57 1022.39 1021.34 1020.12 1017.39 1016.11 1015.87 1015.31 1015.01 1014.93 1014.52 1014.19 1014.06 1014.00 1014.12 1013.90 1013.82 1013.75 1013.85 1013.81 1014.05 1014.56 1015.06 1015.51 1016.16 1016.74 1017.24 1017.62 1017.95 1018.22 1018.59 1018.80 1018.97 1019.42 1019.91 1020.39 1021.08 1021.77 1022.10 1021.94 1022.23 1021.89 1021.78 1022.51
1022.37 1022.15 1020.15 1018.38 1016.31 1015.39 1015.17 1014.70 1014.07 1013.76 1013.52 1013.38 1013.27 1013.16 1013.17 1013.44 1013.49 1013.63 1013.78 1014.19 1014.83 1015.43 1016.06 1016.66 1017.30 1017.73 1018.27 1018.65 1018.92 1019.50 1019.86 1019.98 1020.20 1020.56 1021.19 1021.66 1021.93 1022.22 1022.56 1022.74 1022.90 1022.75 1023.54 1023.79
1021.48 1021.06 1020.80 1018.13 1017.57 1016.81 1014.98 1014.85 1014.51 1013.56 1012.80 1012.36 1012.34 1012.26 1012.45 1012.82 1013.21 1013.63 1014.40 1014.93 1015.55 1016.36 1017.03 1017.70 1018.50 1018.72 1019.44 1019.85 1020.10 1020.70 1020.87 1020.88 1020.96 1021.59 1022.23 1022.46 1022.65 1023.10 1023.48 1023.81 1023.68 1024.33 1024.47 1024.59
Wind_Speed
3 1 4 9 6 2 6 8 13 14 14 9 17 24 19 14 13 16 16 16 18 20 17 15 14 14 12 12 16 19 18 21 14 13 13 13 16 15 13 13 17 16 13 13
1 3 8 0 3 4 5 9 11 8 7 11 16 27 18 7 13 18 16 16 17 18 20 18 17 17 16 15 15 15 19 20 18 14 14 12 12 12 12 11 15 18 16 12
2 4 2 5 5 7 4 7 9 10 5 12 17 22 20 21 18 9 16 15 16 17 20 21 20 16 17 18 16 16 17 18 19 20 11 9 7 9 10 14 14 15 17 15
3 3 1 3 4 7 11 7 8 12 10 12 7 18 20 17 14 17 15 17 19 20 22 21 22 21 19 18 16 15 15 15 15 17 15 18 15 15 13 11 11 12 18 17
2 2 4 5 5 1 6 3 8 12 13 12 9 8 12 19 15 15 17 19 21 20 20 23 24 24 18 15 16 14 11 11 12 14 18 14 16 12 6 7 12 14 16 19
2 5 3 4 5 3 6 5 7 5 5 6 6 6 5 9 11 15 19 21 21 22 23 24 25 24 23 18 17 17 14 10 8 12 16 16 14 10 8 9 9 10 11 12
8 4 2 6 4 3 12 7 6 4 3 9 6 7 7 9 13 13 16 19 20 20 22 23 26 24 24 22 20 18 18 12 5 6 11 11 10 10 11 11 9 11 9 7
5 2 6 7 4 4 6 3 3 7 8 17 13 8 4 4 8 12 15 15 17 21 21 23 24 22 21 21 21 20 18 12 7 6 5 4 6 5 5 6 4 6 10 10
6 4 4 3 4 4 3 4 3 8 11 7 7 3 6 6 11 15 17 17 18 19 20 24 25 22 22 20 16 15 16 12 12 13 13 13 11 11 10 13 11 11 12 11
1 8 3 5 7 3 4 5 5 5 6 8 10 11 12 8 11 14 17 18 18 19 21 21 20 22 20 20 14 13 12 13 11 14 13 14 15 15 14 14 15 13 10 10
4 1 2 6 3 10 12 6 2 5 5 7 9 10 8 7 7 12 14 15 17 18 18 19 19 19 19 19 15 11 11 10 9 10 10 15 14 15 15 14 12 11 10 15
4 3 6 7 13 8 6 6 6 5 5 4 6 15 12 5 9 9 12 13 15 14 17 18 19 18 17 19 14 8 6 10 9 8 11 16 13 14 17 17 14 13 14 17
6 1 8 8 4 2 2 3 5 12 7 12 11 11 3 21 26 14 17 13 14 16 17 18 19 19 19 18 15 6 7 3 9 7 11 15 12 13 15 15 11 11 16 13
3 6 12 13 16 14 23 23 19 16 12 16 23 31 19 22 24 22 19 13 13 14 17 18 19 19 18 18 15 5 3 4 4 8 10 10 14 10 15 13 11 12 15 13
3 8 12 18 14 16 24 27 19 21 24 24 29 28 27 25 21 19 12 11 11 14 16 18 19 19 20 19 17 5 3 1 3 8 10 13 13 15 11 14 13 13 13 13
2 12 10 22 14 20 29 26 24 26 27 29 28 30 29 22 20 10 8 10 12 14 16 18 20 22 22 22 19 6 5 7 9 9 12 10 12 15 11 12 12 12 14 13
9 9 11 24 15 20 20 17 17 18 20 19 20 23 21 20 14 7 8 9 11 13 15 16 19 19 21 22 17 6 7 9 10 11 13 11 11 13 11 11 12 11 11 14
13 13 8 13 13 13 10 5 16 20 20 17 16 20 16 15 8 6 9 8 11 12 14 15 16 17 18 16 11 5 7 8 10 12 13 12 13 11 12 12 13 13 12 13
16 8 5 6 11 20 18 14 15 5 13 10 15 16 14 8 3 9 6 8 11 10 12 11 12 14 14 10 10 10 10 10 11 12 12 12 13 12 12 14 11 9 12 11
6 11 7 6 11 19 13 7 6 11 18 9 20 13 1 1 5 7 14 10 11 10 11 11 12 11 11 7 9 12 13 13 13 13 13 14 14 14 13 12 11 11 10 10
5 4 13 12 13 12 13 17 15 15 19 7 1 4 5 8 8 16 15 15 12 9 10 9 8 8 8 5 9 13 14 14 11 13 14 14 14 13 12 10 8 9 10 12
7 6 7 8 10 14 12 8 14 16 11 6 9 10 15 18 18 17 16 14 11 10 8 6 5 5 6 7 9 12 14 10 12 14 14 14 14 11 10 11 11 11 10 12
7 10 7 11 12 13 9 14 16 18 21 23 21 21 19 19 17 16 16 13 11 7 3 3 3 5 8 8 9 12 9 10 13 15 14 14 14 13 11 10 10 9 11 11
8 13 15 20 20 28 23 25 24 22 22 22 21 20 17 18 17 17 12 11 7 6 2 3 7 7 9 9 10 10 9 11 13 14 14 13 12 12 11 9 10 10 11 10
13 14 18 24 28 26 22 22 23 22 22 22 21 19 18 17 16 14 9 5 5 6 6 7 7 9 10 10 12 11 10 11 13 13 13 12 10 11 12 12 9 11 13 12
5 8 11 22 25 21 23 20 21 23 24 20 18 18 16 13 14 9 3 5 5 7 8 10 9 11 12 13 13 12 11 12 13 12 10 9 9 8 8 8 10 19 17 20
Wind_Direction
36 148 212 244 240 274 294 284 289 288 284 301 308 308 325 313 302 327 311 315 320 325 342 340 340 337 312 282 257 239 231 227 210 204 202 204 213 215 217 218 211 206 201 201
4 271 247 29 273 267 272 295 296 288 287 307 317 305 319 332 318 306 313 318 351 353 352 354 350 341 330 314 293 272 245 232 215 209 210 214 216 219 222 212 213 203 194 192
188 261 343 310 300 294 301 292 303 303 307 290 296 290 305 306 303 299 318 27 6 358 348 345 343 337 333 328 319 292 272 247 222 216 206 211 224 227 211 212 209 206 191 189
237 313 56 22 309 290 303 265 287 304 321 306 349 301 312 307 313 314 33 17 3 359 350 345 340 336 332 324 315 296 282 270 232 205 205 203 208 215 221 213 206 198 188 188
278 336 331 305 275 252 293 319 289 290 286 292 284 255 294 310 329 33 16 11 7 0 360 355 349 341 335 328 327 311 302 280 260 214 210 207 217 222 213 202 188 189 192 196
337 300 2 327 342 16 318 329 293 287 274 259 31 274 328 18 7 16 7 4 5 358 355 358 356 353 352 344 338 331 320 303 256 239 209 212 215 212 184 181 189 193 196 194
340 348 13 15 343 6 1 353 318 298 284 271 326 318 286 27 34 30 12 3 2 1 358 359 357 354 348 346 342 337 332 313 304 228 207 211 205 195 197 195 191 195 195 185
0 289 20 357 43 332 307 332 294 289 294 298 299 253 127 62 34 26 19 9 6 6 3 360 355 351 349 343 348 342 342 344 4 87 103 127 169 186 190 198 142 70 62 49
355 271 333 44 340 319 356 290 338 277 272 267 263 213 188 33 21 18 12 7 2 0 358 356 351 351 352 347 345 346 348 7 38 48 62 54 58 67 72 71 72 73 77 82
76 287 270 321 329 2 258 311 263 222 270 266 257 262 256 26 7 5 4 4 360 358 354 349 350 344 344 345 345 351 359 11 33 73 72 72 61 59 63 63 65 72 88 107
4 231 314 325 279 296 287 264 253 284 256 257 283 262 107 76 15 2 5 359 353 347 344 343 344 341 339 343 346 1 4 20 31 51 75 88 83 79 67 67 65 64 76 77
5 320 286 285 280 299 221 265 259 246 279 288 297 265 143 358 12 354 358 348 342 340 340 339 340 336 343 342 338 351 6 32 24 47 78 81 70 83 88 80 69 79 64 71
3 31 310 288 151 103 22 314 310 315 285 261 263 263 204 323 317 331 327 338 334 336 340 341 341 342 339 342 334 358 336 24 112 33 84 94 90 82 81 86 92 73 81 78
216 217 235 256 280 297 284 279 287 289 273 277 256 281 277 288 289 303 315 327 327 333 340 339 341 339 337 333 329 312 4 2 94 121 94 85 90 81 96 83 71 84 88 84
235 262 255 262 280 289 282 279 285 270 266 259 278 272 282 271 287 291 307 315 319 338 339 336 337 334 335 331 328 264 174 340 45 82 93 98 96 89 76 89 83 78 74 78
238 275 281 274 275 275 278 281 276 267 264 257 258 267 271 285 284 271 300 300 321 331 336 336 335 338 333 329 318 238 153 120 109 89 80 76 85 84 83 87 93 96 86 79
264 271 278 277 292 295 286 283 275 270 260 268 268 272 281 290 272 259 290 301 308 321 327 334 334 338 333 328 317 215 142 117 109 108 110 103 80 81 85 81 84 76 76 79
250 260 257 284 300 267 265 304 300 285 281 288 280 273 280 271 274 261 266 283 304 315 322 331 334 335 335 348 6 74 93 93 95 97 90 85 85 79 87 84 79 77 74 74
222 232 255 262 260 278 294 277 275 294 302 294 293 288 296 247 242 265 288 293 288 296 310 320 327 330 334 360 31 51 60 62 70 74 72 71 77 81 73 68 69 70 76 70
182 212 228 254 278 281 297 258 266 323 288 292 285 304 243 110 298 316 325 309 302 301 312 325 330 338 343 11 75 75 68 63 61 64 71 71 69 69 68 68 65 65 65 73
253 237 240 254 261 268 266 258 274 274 279 309 207 11 351 306 301 301 302 290 297 306 318 331 340 350 4 49 92 90 90 80 78 76 75 74 77 70 60 65 68 60 70 70
274 287 272 270 257 272 232 243 231 261 283 281 284 293 295 294 298 301 300 292 303 314 334 0 3 26 43 79 95 95 90 96 94 87 81 75 70 69 66 63 59 63 60 65
256 217 261 236 255 272 261 265 273 280 281 283 286 294 292 286 288 290 295 301 306 319 348 67 25 71 58 71 94 99 89 93 92 89 85 81 76 69 67 70 71 64 56 52
256 255 255 278 252 264 265 265 265 269 269 271 272 276 279 275 276 286 287 302 315 343 358 50 104 88 74 66 72 73 77 84 83 84 82 77 81 85 76 74 65 59 55 46
271 292 265 270 277 284 270 270 270 268 261 261 262 262 262 268 279 275 291 330 29 68 84 89 97 96 86 81 76 69 75 84 85 82 83 83 83 81 77 67 56 63 60 50
218 269 282 287 303 289 295 296 290 279 272 260 252 262 254 258 264 273 83 94 93 111 113 102 96 89 80 77 74 71 73 78 81 84 80 75 78 76 76 80 74 60 60 60